• In India
  • List of Countries
  • For 7 days
  • Water Temperature
  • Satellite Maps
  • Weather Map
  • Weather Widgets
  • user-avatar
    Login

    Hourly Weather Korçe

    Today, 12 December, Tuesday

    Time Temperature Precipitation Wind Pressure Humidity
    00:00 +2°C° 0 mm 3 mps 668 mmHg 91%
    01:00 +2°C° 0 mm 3 mps 668 mmHg 91%
    02:00 +2°C° 0 mm 3 mps 668 mmHg 91%
    03:00 +2°C° 0 mm 3 mps 668 mmHg 92%
    04:00 +3°C° 0 mm 3 mps 668 mmHg 92%
    05:00 +3°C° 0.1 mm 3 mps 668 mmHg 92%
    06:00 +3°C° 0.1 mm 3 mps 669 mmHg 92%
    07:00 +3°C° 0.1 mm 3 mps 669 mmHg 93%
    08:00 +4°C° 0 mm 3 mps 669 mmHg 91%
    09:00 +5°C° 0 mm 3 mps 670 mmHg 89%
    10:00 +7°C° 0 mm 3 mps 670 mmHg 87%
    11:00 +8°C° 0 mm 3 mps 670 mmHg 86%
    12:00 +8°C° 0 mm 3 mps 670 mmHg 84%
    13:00 +8°C° 0 mm 3 mps 670 mmHg 82%
    14:00 +8°C° 0 mm 3 mps 670 mmHg 85%
    15:00 +7°C° 0 mm 2 mps 670 mmHg 87%
    16:00 +6°C° 0 mm 2 mps 669 mmHg 90%
    17:00 +6°C° 0 mm 2 mps 669 mmHg 91%
    18:00 +5°C° 0 mm 2 mps 669 mmHg 92%
    19:00 +4°C° 0 mm 2 mps 669 mmHg 93%
    20:00 +4°C° 0 mm 2 mps 669 mmHg 92%
    21:00 +4°C° 0 mm 2 mps 670 mmHg 92%
    22:00 +4°C° 0 mm 2 mps 670 mmHg 91%
    23:00 +4°C° 0 mm 2 mps 670 mmHg 92%

    Tomorrow, 13 December, Wednesday

    Time Temperature Precipitation Wind Pressure Humidity
    00:00 +4°C° 0 mm 2 mps 670 mmHg 92%
    01:00 +4°C° 0 mm 2 mps 670 mmHg 92%
    02:00 +4°C° 0 mm 2 mps 670 mmHg 92%
    03:00 +4°C° 0 mm 2 mps 670 mmHg 93%
    04:00 +4°C° 0 mm 2 mps 669 mmHg 93%
    05:00 +4°C° 0 mm 2 mps 670 mmHg 93%
    06:00 +4°C° 0 mm 2 mps 670 mmHg 93%
    07:00 +4°C° 0 mm 2 mps 670 mmHg 94%
    08:00 +5°C° 0 mm 2 mps 670 mmHg 91%
    09:00 +5°C° 0 mm 3 mps 670 mmHg 89%
    10:00 +7°C° 0 mm 3 mps 671 mmHg 86%
    11:00 +8°C° 0 mm 3 mps 670 mmHg 83%
    12:00 +8°C° 0 mm 3 mps 670 mmHg 79%
    13:00 +9°C° 0 mm 3 mps 670 mmHg 76%
    14:00 +8°C° 0 mm 3 mps 669 mmHg 80%
    15:00 +7°C° 0 mm 2 mps 669 mmHg 84%
    16:00 +7°C° 0 mm 2 mps 668 mmHg 88%
    17:00 +6°C° 0 mm 2 mps 668 mmHg 90%
    18:00 +6°C° 0 mm 2 mps 668 mmHg 91%
    19:00 +4°C° 0 mm 3 mps 668 mmHg 93%
    20:00 +4°C° 0.3 mm 3 mps 668 mmHg 93%
    21:00 +4°C° 0.3 mm 3 mps 667 mmHg 93%
    22:00 +4°C° 0.3 mm 3 mps 667 mmHg 94%
    23:00 +5°C° 0.7 mm 2 mps 667 mmHg 94%

    Day after tomorrow, 14 December, Thursday

    Time Temperature Precipitation Wind Pressure Humidity
    00:00 +5°C° 0.7 mm 2 mps 667 mmHg 95%
    01:00 +5°C° 0.7 mm 2 mps 667 mmHg 96%
    02:00 +5°C° 0.4 mm 2 mps 666 mmHg 95%
    03:00 +5°C° 0.4 mm 2 mps 666 mmHg 95%
    04:00 +5°C° 0.4 mm 2 mps 666 mmHg 95%
    05:00 +5°C° 0.1 mm 2 mps 666 mmHg 95%
    06:00 +5°C° 0.1 mm 2 mps 666 mmHg 95%
    07:00 +4°C° 0.1 mm 2 mps 667 mmHg 95%
    08:00 +5°C° 0 mm 2 mps 667 mmHg 91%
    09:00 +5°C° 0 mm 2 mps 667 mmHg 86%
    10:00 +6°C° 0 mm 2 mps 667 mmHg 82%
    11:00 +6°C° 0 mm 2 mps 667 mmHg 77%
    12:00 +6°C° 0 mm 2 mps 667 mmHg 71%
    13:00 +7°C° 0 mm 2 mps 667 mmHg 66%
    14:00 +6°C° 0 mm 2 mps 666 mmHg 69%
    15:00 +5°C° 0 mm 2 mps 666 mmHg 73%
    16:00 +5°C° 0 mm 1 mps 666 mmHg 77%
    17:00 +5°C° 0 mm 1 mps 666 mmHg 80%
    18:00 +4°C° 0 mm 1 mps 666 mmHg 82%
    19:00 +3°C° 0 mm 1 mps 666 mmHg 85%
    20:00 +3°C° 0 mm 1 mps 666 mmHg 85%
    21:00 +2°C° 0 mm 2 mps 666 mmHg 86%
    22:00 +2°C° 0 mm 2 mps 666 mmHg 86%
    23:00 +1°C° 0 mm 2 mps 666 mmHg 85%

    15 December, Friday

    Time Temperature Precipitation Wind Pressure Humidity
    00:00 +1°C° 0 mm 2 mps 665 mmHg 84%
    01:00 +1°C° 0 mm 2 mps 665 mmHg 83%
    02:00 +1°C° 0 mm 2 mps 665 mmHg 82%
    03:00 +1°C° 0 mm 2 mps 665 mmHg 81%
    04:00 +1°C° 0 mm 2 mps 665 mmHg 80%
    05:00 +1°C° 0 mm 2 mps 665 mmHg 80%
    06:00 +1°C° 0 mm 2 mps 665 mmHg 81%
    07:00 +1°C° 0 mm 2 mps 665 mmHg 82%
    08:00 +2°C° 0 mm 3 mps 665 mmHg 79%
    09:00 +4°C° 0 mm 3 mps 665 mmHg 77%
    10:00 +7°C° 0 mm 3 mps 666 mmHg 75%
    11:00 +7°C° 0 mm 3 mps 665 mmHg 75%
    12:00 +8°C° 0 mm 3 mps 665 mmHg 76%
    13:00 +7°C° 0 mm 4 mps 664 mmHg 77%
    14:00 +6°C° 0 mm 4 mps 664 mmHg 81%
    15:00 +6°C° 0 mm 4 mps 664 mmHg 84%
    16:00 +5°C° 0 mm 4 mps 663 mmHg 88%
    17:00 +5°C° 0 mm 4 mps 663 mmHg 89%
    18:00 +4°C° 0 mm 4 mps 663 mmHg 90%
    19:00 +4°C° 0 mm 4 mps 663 mmHg 91%
    20:00 +4°C° 0.1 mm 4 mps 663 mmHg 92%
    21:00 +4°C° 0.1 mm 4 mps 663 mmHg 92%
    22:00 +4°C° 0.1 mm 4 mps 663 mmHg 93%
    23:00 +4°C° 0.2 mm 4 mps 663 mmHg 93%

    16 December, Saturday

    Time Temperature Precipitation Wind Pressure Humidity
    00:00 +5°C° 0.2 mm 4 mps 663 mmHg 93%
    01:00 +5°C° 0.2 mm 4 mps 663 mmHg 93%
    02:00 +5°C° 0.1 mm 4 mps 663 mmHg 94%
    03:00 +5°C° 0.1 mm 4 mps 663 mmHg 94%
    04:00 +5°C° 0.1 mm 4 mps 662 mmHg 94%
    05:00 +5°C° 0.1 mm 4 mps 662 mmHg 94%
    06:00 +5°C° 0.1 mm 4 mps 662 mmHg 94%
    07:00 +5°C° 0.1 mm 4 mps 662 mmHg 94%
    08:00 +6°C° 0.1 mm 4 mps 663 mmHg 90%
    09:00 +7°C° 0.1 mm 5 mps 663 mmHg 86%
    10:00 +7°C° 0.1 mm 5 mps 663 mmHg 82%
    11:00 +7°C° 0.1 mm 5 mps 663 mmHg 82%
    12:00 +8°C° 0.1 mm 5 mps 662 mmHg 81%
    13:00 +8°C° 0.1 mm 5 mps 662 mmHg 81%
    14:00 +7°C° 0.5 mm 5 mps 662 mmHg 84%
    15:00 +6°C° 0.5 mm 4 mps 662 mmHg 87%
    16:00 +5°C° 0.5 mm 4 mps 661 mmHg 90%
    17:00 +5°C° 0.7 mm 4 mps 662 mmHg 91%
    18:00 +5°C° 0.7 mm 4 mps 662 mmHg 92%
    19:00 +4°C° 0.7 mm 4 mps 662 mmHg 92%
    20:00 +4°C° 0.9 mm 3 mps 662 mmHg 93%
    21:00 +4°C° 0.9 mm 3 mps 662 mmHg 93%
    22:00 +4°C° 0.9 mm 3 mps 662 mmHg 93%
    23:00 +4°C° 1.4 mm 3 mps 662 mmHg 94%

    17 December, Sunday

    Time Temperature Precipitation Wind Pressure Humidity
    00:00 +5°C° 1.4 mm 2 mps 662 mmHg 94%
    01:00 +4°C° 1.4 mm 2 mps 662 mmHg 95%
    02:00 +4°C° 0.9 mm 2 mps 661 mmHg 94%
    03:00 +4°C° 0.9 mm 2 mps 661 mmHg 94%
    04:00 +4°C° 0.9 mm 2 mps 661 mmHg 94%
    05:00 +5°C° 0.7 mm 1 mps 661 mmHg 93%
    06:00 +5°C° 0.7 mm 1 mps 661 mmHg 93%
    07:00 +5°C° 0.7 mm 1 mps 661 mmHg 93%
    08:00 +5°C° 0.8 mm 1 mps 661 mmHg 92%
    09:00 +5°C° 0.8 mm 1 mps 662 mmHg 91%
    10:00 +5°C° 0.8 mm 0 mps 662 mmHg 90%
    11:00 +6°C° 0.6 mm 1 mps 662 mmHg 90%
    12:00 +6°C° 0.6 mm 1 mps 662 mmHg 89%
    13:00 +6°C° 0.6 mm 1 mps 661 mmHg 89%
    14:00 +6°C° 0.1 mm 1 mps 662 mmHg 89%
    15:00 +6°C° 0.1 mm 1 mps 662 mmHg 90%
    16:00 +6°C° 0.1 mm 1 mps 662 mmHg 91%
    17:00 +5°C° 0 mm 1 mps 662 mmHg 91%
    18:00 +5°C° 0 mm 1 mps 662 mmHg 92%
    19:00 +4°C° 0 mm 1 mps 663 mmHg 93%
    20:00 +4°C° 0 mm 1 mps 663 mmHg 93%
    21:00 +4°C° 0 mm 1 mps 663 mmHg 93%
    22:00 +4°C° 0 mm 1 mps 663 mmHg 93%
    23:00 +3°C° 0 mm 1 mps 663 mmHg 93%
    Show more